#timestamp,LO_Frequency,Hit,StdDev 
1580716815.1,286046995.3,N
1580716816.0,286046995.3,N
1580716835.8,286046996.3,N
1580716855.7,286046993.6,N
1580716875.5,286046991.5,N
1580716895.3,286046990.3,N
1580716915.2,286046999.6,N
1580716935.0,286047006.4,N
1580716935.9,286047006.4,N
1580716955.8,286047015.1,N
1580716975.6,286047010.3,N
1580716995.4,286047001.7,N
1580717015.3,286046999.8,N
1580717035.1,286046998.0,N
1580717055.8,286046992.6,N
1580717075.7,286046991.5,N
1580717095.5,286046996.5,N
1580717115.4,286047001.3,N
1580717135.2,286047004.5,N
1580717155.0,286047002.6,N
1580717155.9,286047002.6,N
1580717175.8,286046999.2,N
1580717195.6,286046996.2,N
1580717215.4,286046993.4,N
1580717235.3,286046989.7,N
1580717255.1,286046996.0,N
1580717275.9,286047003.0,N
1580717295.7,286047008.3,N
1580717315.5,286047006.1,N
1580717335.4,286047004.4,N
1580717355.2,286047006.5,N
1580717375.0,286047009.7,N
1580717375.9,286047009.7,N
1580717395.8,286047013.0,N
1580717415.6,286047011.8,N
1580717435.5,286047011.9,N
1580717455.3,286047011.6,N
1580717475.1,286047009.9,N
1580717495.9,286047004.5,N
1580717515.7,286047010.6,N
1580717535.5,286047012.1,N
1580717555.4,286047012.4,N
1580717575.2,286046997.2,N
1580717595.1,286046997.8,N
1580717596.0,286046997.8,N
1580717615.8,286047009.4,N
1580717635.6,286047007.6,N
1580717655.5,286047003.3,N
1580717675.3,286047010.8,N
1580717695.1,286047012.8,N
1580717715.9,286047013.8,N
1580717735.7,286047014.2,N
1580717755.6,286047012.7,N
1580717775.4,286047008.1,N
1580717795.2,286047007.2,N
1580717815.1,286047003.0,N
1580717816.0,286047003.0,N
1580717835.8,286047002.5,N
1580717855.6,286047004.3,N
1580717875.5,286047001.5,N
1580717895.3,286047003.9,N
1580717915.2,286047003.5,N
1580717935.9,286047005.9,N
1580717955.7,286047000.4,N
1580717975.6,286046994.3,N
1580717995.4,286046993.3,N
1580718015.2,286047005.3,N
1580718035.1,286047005.8,N
1580718036.0,286047005.8,N
1580718055.8,286047006.0,N
1580718075.7,286047005.9,N
1580718095.5,286047002.5,N
1580718115.3,286046997.6,N
1580718135.2,286046989.8,N
1580718155.0,286046990.7,N
1580718155.9,286046990.7,N
1580718175.8,286046997.9,N
1580718195.6,286047000.8,N
1580718215.4,286046997.6,N
1580718235.3,286046992.9,N
1580718255.1,286046998.1,N
1580718256.0,286046998.1,N
1580718275.8,286046996.5,N
1580718295.7,286046999.9,N
1580718315.5,286047004.1,N
1580718335.3,286047002.1,N
1580718355.2,286047011.9,N
1580718375.0,286047002.4,N
1580718375.9,286047002.4,N
1580718395.8,286046992.2,N
1580718415.6,286046988.4,N
1580718435.4,286046989.2,N
1580718455.3,286046992.7,N
1580718475.1,286046998.9,N
1580718495.8,286046994.0,N
1580718515.7,286046991.4,N
1580718535.5,286046995.7,N
1580718555.4,286047002.6,N
1580718575.2,286047002.2,N
1580718595.0,286047000.4,N
1580718595.9,286047000.4,N
1580718615.8,286047004.9,N
1580718635.6,286047003.6,N
1580718655.5,286047004.7,N
1580718675.3,286047000.6,N
1580718695.1,286046997.7,N
1580718715.9,286046995.2,N
1580718735.7,286046997.1,N
1580718755.5,286046996.2,N
1580718775.4,286046993.3,N
1580718795.2,286046988.4,N
1580718815.1,286046983.3,Y
1580718816.0,286046986.3,P
1580718835.8,286046992.4,N
1580718855.6,286046986.3,N
1580718875.5,286046998.7,N
1580718895.3,286046992.8,N
1580718915.2,286046997.9,N
1580718935.9,286047002.2,N
1580718955.7,286047008.4,N
1580718975.6,286047003.0,N
1580718995.4,286046995.7,N
1580719015.2,286046991.1,N
1580719035.1,286046986.3,N
1580719036.0,286046986.3,N
1580719055.8,286046988.2,N
1580719075.7,286046981.0,N
1580719095.5,286046984.0,N
1580719115.3,286046984.5,N
1580719135.2,286046990.7,N
1580719155.0,286046997.8,N
1580719155.9,286046997.8,N
1580719175.7,286046993.5,N
1580719195.6,286046993.1,N
1580719215.4,286046992.0,N
1580719235.3,286046995.8,N
1580719255.1,286046998.1,N
1580719256.0,286046998.1,N
1580719275.8,286046993.4,N
1580719295.7,286046990.4,N
1580719315.5,286046992.9,N
1580719335.3,286046999.4,N
1580719355.2,286046999.5,N
1580719375.0,286046998.7,N
1580719375.9,286046998.7,N
1580719395.8,286046992.0,N
1580719415.6,286046984.2,N
1580719435.4,286046986.4,N
1580719455.3,286046981.5,N
1580719475.1,286046976.6,Y
1580719495.8,286046986.6,P
1580719515.7,286046982.5,P
1580719535.5,286046988.7,N
1580719555.4,286046995.9,N
1580719575.2,286047002.8,N
1580719595.0,286047001.5,N
1580719595.9,286047001.5,N
1580719615.8,286046994.7,N
1580719635.6,286046987.9,N
1580719655.4,286046983.2,N
1580719675.3,286046980.6,N
1580719695.1,286046987.6,N
1580719715.9,286046998.0,N
1580719735.7,286046995.2,N
1580719755.5,286046992.3,N
1580719775.4,286046991.2,N
1580719795.2,286046992.8,N
1580719815.1,286046991.7,N
1580719816.0,286046991.7,N
1580719835.8,286047000.7,N
1580719855.7,286047006.4,N
1580719875.5,286047001.9,N
1580719895.4,286046996.3,N
1580719915.2,286046994.4,N
1580719935.0,286047000.3,N
1580719935.9,286047000.3,N
1580719955.8,286046995.4,N
1580719975.6,286046996.4,N
1580719995.5,286046999.8,N
1580720015.3,286047005.7,N
1580720035.1,286047006.7,N
1580720055.9,286047000.4,N
1580720075.7,286046997.9,N
1580720095.5,286046997.9,N
1580720115.4,286046999.4,N
1580720135.2,286046997.9,N
1580720155.1,286046989.2,N
1580720156.0,286046989.2,N
1580720175.8,286046985.7,N
1580720195.6,286046992.1,N
1580720215.5,286046993.5,N
1580720235.3,286046987.2,N
1580720255.2,286046984.0,Y
1580720275.9,286046987.1,P
1580720295.7,286046991.2,N
1580720315.6,286046993.0,N
1580720335.4,286046988.4,Y
1580720355.3,286047000.9,P
1580720375.1,286047004.3,N
1580720376.0,286047004.3,N
1580720395.8,286047005.6,N
